| time (UTC) | temp F | wind direction | speed MPH | gust MPH | rain 1hr in | rain 24hr in | rain mn in | humidity % | barometer mb |
| 20260503223003 | 57 | 0 | 0.0 | 0.0 | 0.00 | 0.27 | 0.00 | 95 | 1011.7 |
| 20260503222505 | 57 | 0 | 0.0 | 0.0 | 0.00 | 0.27 | 0.00 | 95 | 1011.8 |
| 20260503222006 | 57 | 0 | 0.0 | 0.0 | 0.00 | 0.27 | 0.00 | 95 | 1011.7 |
| 20260503221718 | 57 | 0 | 0.0 | 0.0 | 0.00 | 0.27 | 0.00 | 95 | 1011.7 |
| 20260503221003 | 58 | 0 | 0.0 | 0.0 | 0.00 | 0.27 | 0.00 | 95 | 1011.7 |
| 20260503220503 | 58 | 0 | 0.0 | 0.0 | 0.00 | 0.27 | 0.00 | 95 | 1011.7 |
| 20260503220005 | 58 | 0 | 0.0 | 0.0 | 0.00 | 0.27 | 0.00 | 95 | 1011.5 |
| 20260503215504 | 58 | 0 | 0.0 | 0.0 | 0.00 | 0.27 | 0.27 | 95 | 1011.5 |
| 20260503215003 | 58 | 0 | 0.0 | 0.0 | 0.00 | 0.27 | 0.27 | 95 | 1011.5 |
| 20260503214503 | 58 | 0 | 0.0 | 0.0 | 0.00 | 0.27 | 0.27 | 95 | 1011.5 |
| 20260503214003 | 58 | 0 | 0.0 | 0.0 | 0.00 | 0.27 | 0.27 | 95 | 1011.6 |
| 20260503213504 | 58 | 0 | 0.0 | 0.0 | 0.00 | 0.27 | 0.27 | 95 | 1011.6 |
| 20260503213003 | 58 | 0 | 0.0 | 0.0 | 0.00 | 0.27 | 0.27 | 95 | 1011.6 |
| 20260503212719 | 58 | 0 | 0.0 | 0.0 | 0.00 | 0.27 | 0.27 | 95 | 1011.7 |
| 20260503212003 | 58 | 0 | 0.0 | 0.0 | 0.00 | 0.27 | 0.27 | 95 | 1011.6 |
| 20260503211505 | 58 | 0 | 0.0 | 0.0 | 0.00 | 0.27 | 0.27 | 95 | 1011.6 |
| 20260503211003 | 58 | 0 | 0.0 | 0.0 | 0.00 | 0.27 | 0.27 | 95 | 1011.6 |
| 20260503210505 | 58 | 0 | 0.0 | 0.0 | 0.00 | 0.27 | 0.27 | 95 | 1011.6 |
| 20260503210008 | 59 | 0 | 0.0 | 0.0 | 0.00 | 0.27 | 0.27 | 95 | 1011.4 |
| 20260503205511 | 59 | 0 | 0.0 | 0.0 | 0.00 | 0.27 | 0.27 | 95 | 1011.5 |
| 20260503205007 | 59 | 0 | 0.0 | 0.0 | 0.00 | 0.27 | 0.27 | 95 | 1011.6 |
| 20260503204717 | 59 | 0 | 0.0 | 0.0 | 0.00 | 0.27 | 0.27 | 95 | 1011.6 |
| 20260503204004 | 59 | 0 | 0.0 | 0.0 | 0.00 | 0.27 | 0.27 | 95 | 1011.5 |
| 20260503203503 | 59 | 0 | 0.0 | 0.0 | 0.00 | 0.27 | 0.27 | 95 | 1011.5 |
| 20260503203006 | 59 | 0 | 0.0 | 0.0 | 0.00 | 0.27 | 0.27 | 95 | 1011.5 |
| 20260503202503 | 59 | 0 | 0.0 | 0.0 | 0.00 | 0.27 | 0.27 | 95 | 1011.5 |
| 20260503202003 | 59 | 0 | 0.0 | 0.0 | 0.00 | 0.27 | 0.27 | 95 | 1011.5 |
| 20260503201503 | 59 | 0 | 0.0 | 0.0 | 0.00 | 0.27 | 0.27 | 94 | 1011.6 |
| 20260503201005 | 59 | 0 | 0.0 | 0.0 | 0.00 | 0.27 | 0.27 | 94 | 1011.6 |
| 20260503200505 | 59 | 155 | 0.0 | 5.0 | 0.00 | 0.27 | 0.27 | 94 | 1011.6 |
| 20260503200003 | 59 | 163 | 1.0 | 5.0 | 0.00 | 0.27 | 0.27 | 94 | 1011.6 |
| 20260503195503 | 59 | 168 | 2.0 | 5.0 | 0.00 | 0.27 | 0.27 | 94 | 1011.7 |
| 20260503195006 | 59 | 164 | 2.0 | 5.0 | 0.00 | 0.27 | 0.27 | 94 | 1011.6 |
| 20260503194505 | 59 | 152 | 1.0 | 4.0 | 0.00 | 0.27 | 0.27 | 94 | 1011.6 |
| 20260503194008 | 59 | 150 | 2.0 | 5.0 | 0.00 | 0.27 | 0.27 | 94 | 1011.5 |
| 20260503193505 | 59 | 154 | 2.0 | 6.0 | 0.00 | 0.27 | 0.27 | 94 | 1011.5 |
| 20260503193005 | 59 | 156 | 3.0 | 9.0 | 0.00 | 0.27 | 0.27 | 94 | 1011.4 |
| 20260503192503 | 59 | 154 | 3.0 | 9.0 | 0.00 | 0.27 | 0.27 | 94 | 1011.4 |
| 20260503192004 | 59 | 153 | 3.0 | 8.0 | 0.00 | 0.27 | 0.27 | 94 | 1011.4 |
| 20260503191717 | 59 | 157 | 3.0 | 8.0 | 0.00 | 0.27 | 0.27 | 94 | 1011.4 |
| 20260503191218 | 59 | 155 | 3.0 | 8.0 | 0.00 | 0.27 | 0.27 | 94 | 1011.3 |
| 20260503190503 | 59 | 168 | 3.0 | 8.0 | 0.00 | 0.27 | 0.27 | 94 | 1011.3 |
| 20260503190222 | 59 | 172 | 3.0 | 8.0 | 0.00 | 0.27 | 0.27 | 94 | 1011.3 |
| 20260503185503 | 59 | 164 | 3.0 | 8.0 | 0.00 | 0.27 | 0.27 | 94 | 1011.3 |
| 20260503185005 | 59 | 164 | 4.0 | 10.0 | 0.00 | 0.27 | 0.27 | 94 | 1011.2 |
| 20260503184510 | 59 | 163 | 4.0 | 10.0 | 0.00 | 0.27 | 0.27 | 94 | 1011.2 |
| 20260503184004 | 59 | 162 | 3.0 | 8.0 | 0.00 | 0.27 | 0.27 | 94 | 1011.2 |
| 20260503183507 | 59 | 158 | 4.0 | 9.0 | 0.00 | 0.27 | 0.27 | 94 | 1011.2 |
| 20260503183003 | 59 | 163 | 4.0 | 9.0 | 0.00 | 0.27 | 0.27 | 94 | 1011.2 |
| 20260503182503 | 59 | 159 | 4.0 | 10.0 | 0.00 | 0.27 | 0.27 | 94 | 1011.1 |
| 20260503182006 | 59 | 153 | 4.0 | 10.0 | 0.00 | 0.27 | 0.27 | 94 | 1011.1 |
| 20260503181718 | 59 | 157 | 4.0 | 10.0 | 0.00 | 0.27 | 0.27 | 94 | 1011.1 |
| 20260503181003 | 59 | 164 | 4.0 | 9.0 | 0.00 | 0.27 | 0.27 | 94 | 1010.8 |
| 20260503180505 | 59 | 166 | 4.0 | 8.0 | 0.00 | 0.27 | 0.27 | 94 | 1010.8 |
| 20260503180006 | 59 | 164 | 4.0 | 9.0 | 0.00 | 0.27 | 0.27 | 94 | 1010.8 |
| 20260503175503 | 59 | 159 | 5.0 | 12.0 | 0.00 | 0.27 | 0.27 | 94 | 1010.8 |
| 20260503175003 | 59 | 158 | 4.0 | 12.0 | 0.00 | 0.27 | 0.27 | 94 | 1010.8 |
| 20260503174503 | 60 | 161 | 4.0 | 14.0 | 0.00 | 0.27 | 0.27 | 94 | 1010.8 |
| 20260503174217 | 60 | 162 | 5.0 | 14.0 | 0.00 | 0.27 | 0.27 | 94 | 1010.8 |
| 20260503173505 | 60 | 160 | 5.0 | 13.0 | 0.00 | 0.27 | 0.27 | 94 | 1010.7 |
| 20260503173003 | 60 | 163 | 4.0 | 12.0 | 0.00 | 0.27 | 0.27 | 95 | 1010.7 |
| 20260503172505 | 60 | 161 | 5.0 | 14.0 | 0.00 | 0.27 | 0.27 | 94 | 1010.6 |
| 20260503172004 | 60 | 156 | 5.0 | 14.0 | 0.00 | 0.27 | 0.27 | 94 | 1010.8 |
| 20260503171505 | 60 | 166 | 5.0 | 11.0 | 0.00 | 0.27 | 0.27 | 94 | 1010.6 |
| 20260503171005 | 60 | 167 | 5.0 | 11.0 | 0.00 | 0.27 | 0.27 | 95 | 1010.6 |
| 20260503170505 | 60 | 157 | 5.0 | 11.0 | 0.00 | 0.27 | 0.27 | 94 | 1010.8 |
| 20260503151005 | 60 | 183 | 2.0 | 6.0 | 0.05 | 0.27 | 0.27 | 95 | 1010.6 |
| 20260503150507 | 60 | 179 | 2.0 | 6.0 | 0.05 | 0.27 | 0.27 | 95 | 1010.6 |
| 20260503131003 | 62 | 173 | 3.0 | 8.0 | 0.14 | 0.22 | 0.22 | 91 | 1010.7 |
| 20260503130506 | 62 | 221 | 3.0 | 10.0 | 0.13 | 0.21 | 0.21 | 89 | 1010.6 |
| 20260503110718 | 70 | 171 | 4.0 | 9.0 | 0.00 | 0.08 | 0.08 | 77 | 1010.5 |
| 20260503110216 | 70 | 165 | 4.0 | 11.0 | 0.00 | 0.08 | 0.08 | 76 | 1010.4 |
| 20260503090503 | 68 | 143 | 5.0 | 11.0 | 0.00 | 0.08 | 0.08 | 76 | 1010.6 |
| 20260503081504 | 66 | 137 | 5.0 | 9.0 | 0.00 | 0.08 | 0.08 | 82 | 1011.0 |
| 20260503081003 | 65 | 140 | 4.0 | 9.0 | 0.00 | 0.08 | 0.08 | 82 | 1011.0 |
| 20260503080503 | 65 | 134 | 4.0 | 9.0 | 0.00 | 0.08 | 0.08 | 83 | 1011.0 |
| 20260503072506 | 64 | 138 | 4.0 | 9.0 | 0.00 | 0.08 | 0.08 | 86 | 1011.2 |
| 20260503072003 | 64 | 142 | 5.0 | 9.0 | 0.00 | 0.08 | 0.08 | 87 | 1011.2 |
| 20260503071504 | 63 | 144 | 5.0 | 11.0 | 0.00 | 0.08 | 0.08 | 88 | 1011.2 |
| 20260503071003 | 63 | 136 | 4.0 | 11.0 | 0.00 | 0.08 | 0.08 | 88 | 1011.2 |
| 20260503070506 | 63 | 137 | 3.0 | 8.0 | 0.00 | 0.08 | 0.08 | 91 | 1011.2 |
| 20260503060219 | 59 | 157 | 0.0 | 1.0 | 0.00 | 0.08 | 0.08 | 97 | 1011.5 |
| 20260503054505 | 58 | 0 | 0.0 | 0.0 | 0.00 | 0.08 | 0.08 | 97 | 1011.4 |
| 20260503054004 | 58 | 0 | 0.0 | 0.0 | 0.00 | 0.08 | 0.08 | 96 | 1011.6 |
| 20260503053508 | 58 | 0 | 0.0 | 0.0 | 0.00 | 0.08 | 0.08 | 96 | 1011.6 |
| 20260503053003 | 58 | 0 | 0.0 | 0.0 | 0.00 | 0.08 | 0.08 | 96 | 1011.6 |
| 20260503052505 | 58 | 0 | 0.0 | 0.0 | 0.00 | 0.08 | 0.08 | 96 | 1011.7 |
| 20260503052008 | 57 | 0 | 0.0 | 0.0 | 0.00 | 0.08 | 0.08 | 96 | 1011.7 |
| 20260503051503 | 57 | 0 | 0.0 | 0.0 | 0.00 | 0.08 | 0.08 | 96 | 1011.8 |
| 20260503051219 | 57 | 0 | 0.0 | 0.0 | 0.00 | 0.08 | 0.08 | 96 | 1011.8 |
| 20260503050510 | 57 | 0 | 0.0 | 0.0 | 0.00 | 0.08 | 0.08 | 96 | 1011.7 |
| 20260503050005 | 57 | 0 | 0.0 | 0.0 | 0.00 | 0.08 | 0.08 | 95 | 1011.7 |
| 20260503045505 | 57 | 0 | 0.0 | 0.0 | 0.00 | 0.08 | 0.08 | 95 | 1011.6 |
| 20260503045005 | 57 | 0 | 0.0 | 0.0 | 0.00 | 0.08 | 0.08 | 96 | 1011.5 |
| 20260503044503 | 57 | 0 | 0.0 | 0.0 | 0.00 | 0.08 | 0.08 | 95 | 1011.5 |
| 20260503044004 | 57 | 0 | 0.0 | 0.0 | 0.00 | 0.08 | 0.08 | 95 | 1011.6 |
| 20260503043503 | 57 | 0 | 0.0 | 0.0 | 0.01 | 0.08 | 0.08 | 95 | 1011.5 |
| 20260503043008 | 57 | 0 | 0.0 | 0.0 | 0.01 | 0.08 | 0.08 | 95 | 1011.6 |
| 20260503042503 | 57 | 0 | 0.0 | 0.0 | 0.01 | 0.08 | 0.08 | 95 | 1011.5 |
| 20260503042007 | 57 | 0 | 0.0 | 0.0 | 0.01 | 0.08 | 0.08 | 95 | 1011.5 |
| 20260503041507 | 57 | 0 | 0.0 | 0.0 | 0.01 | 0.08 | 0.08 | 95 | 1011.6 |
| 20260503041008 | 57 | 0 | 0.0 | 0.0 | 0.01 | 0.08 | 0.08 | 95 | 1011.5 |
| 20260503040721 | 57 | 0 | 0.0 | 0.0 | 0.01 | 0.08 | 0.08 | 95 | 1011.7 |
| 20260503040218 | 57 | 0 | 0.0 | 0.0 | 0.01 | 0.08 | 0.08 | 95 | 1011.6 |
| 20260503035503 | 57 | 0 | 0.0 | 0.0 | 0.01 | 0.08 | 0.08 | 95 | 1011.6 |
| 20260503035005 | 57 | 0 | 0.0 | 0.0 | 0.01 | 0.08 | 0.08 | 95 | 1011.7 |
| 20260503034504 | 57 | 0 | 0.0 | 0.0 | 0.01 | 0.08 | 0.08 | 95 | 1011.7 |
| 20260503034004 | 57 | 0 | 0.0 | 0.0 | 0.01 | 0.08 | 0.08 | 95 | 1011.8 |
| 20260503033505 | 57 | 0 | 0.0 | 0.0 | 0.00 | 0.07 | 0.07 | 95 | 1011.8 |
| 20260503033004 | 57 | 0 | 0.0 | 0.0 | 0.00 | 0.07 | 0.07 | 94 | 1011.7 |
| 20260503032503 | 58 | 0 | 0.0 | 0.0 | 0.00 | 0.07 | 0.07 | 94 | 1011.7 |
| 20260503032006 | 58 | 0 | 0.0 | 0.0 | 0.00 | 0.07 | 0.07 | 94 | 1011.8 |
| 20260503031503 | 58 | 0 | 0.0 | 0.0 | 0.00 | 0.07 | 0.07 | 95 | 1011.9 |
| 20260503031004 | 58 | 0 | 0.0 | 0.0 | 0.00 | 0.07 | 0.07 | 94 | 1011.8 |
| 20260503030504 | 58 | 0 | 0.0 | 0.0 | 0.00 | 0.07 | 0.07 | 94 | 1011.9 |
| 20260503030005 | 58 | 0 | 0.0 | 0.0 | 0.00 | 0.07 | 0.07 | 94 | 1011.9 |
| 20260503025503 | 58 | 126 | 0.0 | 3.0 | 0.02 | 0.07 | 0.07 | 94 | 1011.9 |
| 20260503025220 | 58 | 116 | 0.0 | 3.0 | 0.03 | 0.07 | 0.07 | 94 | 1011.8 |
| 20260503024503 | 58 | 118 | 1.0 | 4.0 | 0.04 | 0.07 | 0.07 | 94 | 1012.0 |
| 20260503024003 | 58 | 123 | 1.0 | 4.0 | 0.05 | 0.07 | 0.07 | 94 | 1011.9 |
| 20260503023718 | 58 | 124 | 1.0 | 4.0 | 0.05 | 0.07 | 0.07 | 94 | 1012.0 |
| 20260503023003 | 58 | 124 | 1.0 | 6.0 | 0.06 | 0.07 | 0.07 | 94 | 1012.0 |
| 20260503022505 | 58 | 113 | 1.0 | 6.0 | 0.06 | 0.07 | 0.07 | 94 | 1012.2 |
| 20260503022004 | 58 | 124 | 0.0 | 3.0 | 0.06 | 0.07 | 0.07 | 94 | 1012.2 |
| 20260503021505 | 58 | 124 | 0.0 | 3.0 | 0.06 | 0.07 | 0.07 | 94 | 1012.4 |
| 20260503021005 | 58 | 106 | 0.0 | 2.0 | 0.06 | 0.07 | 0.07 | 94 | 1012.5 |
| 20260503020504 | 58 | 99 | 0.0 | 2.0 | 0.06 | 0.07 | 0.07 | 93 | 1012.5 |
| 20260503020005 | 58 | 132 | 0.0 | 2.0 | 0.06 | 0.07 | 0.07 | 94 | 1012.5 |
| 20260503015505 | 58 | 180 | 0.0 | 2.0 | 0.03 | 0.05 | 0.05 | 93 | 1012.7 |
| 20260503015004 | 58 | 181 | 0.0 | 2.0 | 0.02 | 0.03 | 0.03 | 93 | 1013.0 |
| 20260503014720 | 58 | 160 | 1.0 | 5.0 | 0.02 | 0.03 | 0.03 | 93 | 1013.1 |
| 20260503014221 | 58 | 158 | 1.0 | 6.0 | 0.02 | 0.03 | 0.03 | 93 | 1013.2 |
| 20260503013505 | 58 | 0 | 0.0 | 0.0 | 0.00 | 0.02 | 0.02 | 93 | 1013.3 |
| 20260503013003 | 58 | 0 | 0.0 | 0.0 | 0.00 | 0.02 | 0.02 | 93 | 1013.2 |
| 20260503012504 | 58 | 0 | 0.0 | 0.0 | 0.00 | 0.02 | 0.02 | 92 | 1013.2 |
| 20260503012003 | 58 | 0 | 0.0 | 0.0 | 0.00 | 0.02 | 0.02 | 92 | 1013.2 |
| 20260503011504 | 58 | 0 | 0.0 | 0.0 | 0.00 | 0.02 | 0.02 | 92 | 1013.1 |
| 20260503011004 | 58 | 0 | 0.0 | 0.0 | 0.00 | 0.02 | 0.02 | 92 | 1013.1 |
| 20260503010505 | 58 | 0 | 0.0 | 0.0 | 0.00 | 0.02 | 0.02 | 92 | 1013.2 |
| 20260503010006 | 58 | 0 | 0.0 | 0.0 | 0.00 | 0.02 | 0.02 | 92 | 1013.2 |
| 20260503005503 | 58 | 0 | 0.0 | 0.0 | 0.00 | 0.02 | 0.02 | 91 | 1013.1 |
| 20260503005003 | 59 | 0 | 0.0 | 0.0 | 0.00 | 0.02 | 0.02 | 91 | 1013.1 |
| 20260503004511 | 59 | 0 | 0.0 | 0.0 | 0.00 | 0.02 | 0.02 | 91 | 1013.0 |
| 20260503004219 | 59 | 123 | 0.0 | 2.0 | 0.00 | 0.02 | 0.02 | 91 | 1013.0 |
| 20260503003503 | 59 | 123 | 0.0 | 3.0 | 0.00 | 0.02 | 0.02 | 91 | 1013.1 |
| 20260503003003 | 59 | 123 | 1.0 | 3.0 | 0.00 | 0.02 | 0.02 | 91 | 1013.1 |
| 20260503002508 | 59 | 130 | 1.0 | 4.0 | 0.00 | 0.02 | 0.02 | 90 | 1013.2 |
| 20260503002003 | 60 | 136 | 1.0 | 4.0 | 0.00 | 0.02 | 0.02 | 90 | 1013.2 |
| 20260503001508 | 60 | 0 | 0.0 | 0.0 | 0.01 | 0.02 | 0.02 | 90 | 1013.3 |
| 20260503001003 | 60 | 0 | 0.0 | 0.0 | 0.01 | 0.02 | 0.02 | 90 | 1013.2 |
| 20260503000718 | 60 | 0 | 0.0 | 0.0 | 0.01 | 0.02 | 0.02 | 90 | 1013.3 |
| 20260503000006 | 60 | 145 | 0.0 | 4.0 | 0.02 | 0.02 | 0.02 | 90 | 1013.5 |
| 20260502235505 | 60 | 145 | 0.0 | 4.0 | 0.02 | 0.02 | 0.02 | 90 | 1013.9 |
| 20260502235006 | 60 | 138 | 0.0 | 1.0 | 0.02 | 0.02 | 0.02 | 89 | 1013.9 |
| 20260502234504 | 60 | 140 | 1.0 | 2.0 | 0.02 | 0.02 | 0.02 | 89 | 1014.1 |
| 20260502234003 | 60 | 147 | 1.0 | 4.0 | 0.02 | 0.02 | 0.02 | 89 | 1014.2 |
| 20260502233506 | 61 | 148 | 1.0 | 4.0 | 0.02 | 0.02 | 0.02 | 89 | 1014.4 |
| 20260502233218 | 61 | 148 | 1.0 | 5.0 | 0.02 | 0.02 | 0.02 | 89 | 1014.5 |
| 20260502232505 | 61 | 148 | 2.0 | 6.0 | 0.02 | 0.02 | 0.02 | 88 | 1014.6 |
| 20260502232005 | 61 | 149 | 2.0 | 6.0 | 0.02 | 0.02 | 0.02 | 88 | 1014.6 |
| 20260502231503 | 61 | 157 | 3.0 | 7.0 | 0.01 | 0.01 | 0.01 | 87 | 1014.8 |
| 20260502231003 | 62 | 163 | 3.0 | 7.0 | 0.01 | 0.01 | 0.01 | 87 | 1014.8 |
| 20260502230505 | 62 | 163 | 2.0 | 6.0 | 0.01 | 0.01 | 0.01 | 87 | 1014.9 |
| 20260502230006 | 62 | 148 | 3.0 | 7.0 | 0.00 | 0.00 | 0.00 | 86 | 1014.6 |
| 20260502225503 | 62 | 151 | 4.0 | 7.0 | 0.00 | 0.00 | 0.00 | 85 | 1014.5 |
| 20260502225003 | 62 | 160 | 3.0 | 7.0 | 0.00 | 0.00 | 0.00 | 86 | 1014.7 |
| 20260502224505 | 62 | 159 | 2.0 | 5.0 | 0.00 | 0.00 | 0.00 | 86 | 1014.6 |
| 20260502224218 | 62 | 160 | 2.0 | 5.0 | 0.00 | 0.00 | 0.00 | 86 | 1014.6 |
| 20260502223719 | 62 | 156 | 1.0 | 5.0 | 0.00 | 0.00 | 0.00 | 85 | 1014.3 |